Location: Bishausen
(51.6334°N, 9.9631°E)
Time: 17:09:41
(UTC+00:00)

Cosmos 1954 Rocket - Pass Details

Date: 16 August 2024
Orbit: 749 x 778 km, 74.0° (Epoch: 11 September)

Event Time Altitude Azimuth Distance (km) Brightness Sun altitude
Rises 19:29:17 0° 320° (NW) 3,228 8.9 -7.6°
Reaches altitude 10° 19:33:00 10° 293° (WNW) 2,303 8.1 -8.1°
Maximum altitude 19:35:13 13° 268° (W) 2,114 7.2 -8.3°
Drops below altitude 10° 19:37:26 10° 242° (WSW) 2,304 6.9 -8.6°
Sets 19:41:10 0° 215° (SW) 3,231 7.2 -9.1°
